DW1232 Weather Reports


Display with metric or nautical units.
time (UTC)temp
F
wind
direction
speed
MPH
gust
MPH
rain 1hr
in
rain 24hr
in
rain mn
in
humidity
%
barometer
mb
20210922023029 72 184 2.0 6.0 0.00 0.00 0.00 43 1020.9
20210922022003 72 176 2.0 6.0 0.00 0.00 0.00 43 1020.7
20210922021026 72 167 1.0 5.0 0.00 0.00 0.00 43 1020.6
20210922015952 73 153 1.0 4.0 0.00 0.00 0.00 42 1020.2
20210922015008 74 215 0.0 3.0 0.00 0.00 0.00 41 1019.9
20210922014031 74 165 1.0 7.0 0.00 0.00 0.00 40 1019.7
20210922013041 75 165 2.0 7.0 0.00 0.00 0.00 39 1019.5
20210922012015 75 138 3.0 7.0 0.00 0.00 0.00 39 1019.3
20210922011035 76 169 2.0 6.0 0.00 0.00 0.00 39 1019.3
20210922010019 76 211 2.0 9.0 0.00 0.00 0.00 38 1019.1
20210922005014 77 170 3.0 9.0 0.00 0.00 0.00 37 1019.0
20210922004019 77 203 3.0 10.0 0.00 0.00 0.00 37 1019.0
20210922003031 78 167 3.0 10.0 0.00 0.00 0.00 37 1018.6
20210922002050 78 159 4.0 9.0 0.00 0.00 0.00 36 1018.6
20210922001033 79 181 3.0 9.0 0.00 0.00 0.00 36 1018.5
20210922000033 79 179 4.0 9.0 0.00 0.00 0.00 36 1018.4
20210921235025 80 215 4.0 11.0 0.00 0.00 0.00 34 1018.4
20210921234018 80 208 4.0 12.0 0.00 0.00 0.00 35 1018.1
20210921233018 80 176 5.0 20.0 0.00 0.00 0.00 34 1018.2
20210921232009 81 173 5.0 20.0 0.00 0.00 0.00 34 1018.0
20210921231026 81 134 6.0 15.0 0.00 0.00 0.00 34 1018.0
20210921225957 81 129 5.0 13.0 0.00 0.00 0.00 34 1017.7
20210921224931 81 171 5.0 13.0 0.00 0.00 0.00 34 1017.7
20210921223906 81 147 5.0 11.0 0.00 0.00 0.00 34 1017.5
20210921222854 81 183 6.0 17.0 0.00 0.00 0.00 34 1017.3
20210921221853 82 163 8.0 17.0 0.00 0.00 0.00 34 1017.3
20210921220842 83 157 5.0 20.0 0.00 0.00 0.00 34 1017.3
20210921215846 83 131 7.0 20.0 0.00 0.00 0.00 34 1017.1
20210921214911 85 198 6.0 13.0 0.00 0.00 0.00 34 1016.9
20210921213902 85 189 7.0 21.0 0.00 0.00 0.00 33 1016.7
20210921212913 85 214 7.0 21.0 0.00 0.00 0.00 32 1016.5
20210921211848 86 165 7.0 18.0 0.00 0.00 0.00 34 1016.4
20210921210912 85 194 7.0 18.0 0.00 0.00 0.00 35 1016.5
20210921205842 85 171 7.0 17.0 0.00 0.00 0.00 35 1016.5
20210921204816 86 167 6.0 14.0 0.00 0.00 0.00 34 1016.6
20210921203822 86 144 6.0 14.0 0.00 0.00 0.00 36 1016.5
20210921202752 86 171 7.0 13.0 0.00 0.00 0.00 36 1016.6
20210921201816 86 112 7.0 17.0 0.00 0.00 0.00 37 1016.6
20210921200750 86 188 6.0 19.0 0.00 0.00 0.00 36 1016.5
20210921195758 86 147 6.0 19.0 0.00 0.00 0.00 38 1016.4
20210921194822 86 134 6.0 17.0 0.00 0.00 0.00 38 1016.4
20210921193748 86 157 7.0 17.0 0.00 0.00 0.00 40 1016.7
20210921192810 84 219 5.0 15.0 0.00 0.00 0.00 41 1016.7
20210921191740 85 198 7.0 19.0 0.00 0.00 0.00 40 1016.8
20210921190732 85 172 7.0 17.0 0.00 0.00 0.00 42 1016.9
20210921185752 83 210 7.0 17.0 0.00 0.00 0.00 44 1016.9
20210921184802 83 206 7.0 17.0 0.00 0.00 0.00 45 1017.1
20210921183751 83 119 7.0 17.0 0.00 0.00 0.00 48 1017.0
20210921182730 83 158 6.0 15.0 0.00 0.00 0.00 49 1017.0
20210921181728 84 219 7.0 15.0 0.00 0.00 0.00 49 1017.0
20210921180713 83 151 6.0 14.0 0.00 0.00 0.00 51 1017.2
20210921175649 83 200 5.0 14.0 0.00 0.00 0.00 51 1017.2
20210921174626 82 134 6.0 14.0 0.00 0.00 0.00 55 1017.1
20210921173637 80 184 6.0 14.0 0.00 0.00 0.00 55 1017.1
20210921172621 79 157 6.0 13.0 0.00 0.00 0.00 56 1017.1
20210921171613 80 159 6.0 14.0 0.00 0.00 0.00 56 1017.0
20210921170613 80 247 6.0 14.0 0.00 0.00 0.00 56 1017.0
20210921165637 80 205 5.0 14.0 0.00 0.00 0.00 57 1017.1
20210921164626 79 173 5.0 15.0 0.00 0.00 0.00 56 1017.1
20210921163624 79 123 6.0 15.0 0.00 0.00 0.00 57 1016.8
20210921162555 78 146 5.0 11.0 0.00 0.00 0.00 59 1016.8
20210921161620 76 127 5.0 10.0 0.00 0.00 0.00 61 1016.7
20210921160547 76 175 5.0 14.0 0.00 0.00 0.00 61 1016.4
20210921155516 74 94 5.0 14.0 0.00 0.00 0.00 61 1016.3
20210921154458 74 171 6.0 14.0 0.00 0.00 0.00 62 1016.1
20210921153427 76 184 6.0 13.0 0.00 0.00 0.00 61 1016.0
20210921152355 76 142 7.0 14.0 0.00 0.00 0.00 60 1015.6
20210921151325 75 127 6.0 17.0 0.00 0.00 0.00 62 1015.4
20210921150348 75 213 6.0 17.0 0.00 0.00 0.00 61 1015.2
20210921145342 75 163 6.0 20.0 0.00 0.00 0.00 61 1015.1
20210921144405 75 143 7.0 20.0 0.00 0.00 0.00 60 1014.8
20210921143357 75 163 6.0 18.0 0.00 0.00 0.00 60 1014.6
20210921142410 75 169 7.0 15.0 0.00 0.00 0.00 60 1014.6
20210921141414 74 158 5.0 15.0 0.00 0.00 0.00 60 1014.5
20210921140352 74 148 7.0 15.0 0.00 0.00 0.00 60 1014.2
20210921135359 74 135 6.0 15.0 0.00 0.00 0.00 60 1014.2
20210921134339 74 124 5.0 15.0 0.00 0.00 0.00 60 1014.1
20210921133353 73 171 4.0 13.0 0.00 0.00 0.00 61 1014.0
20210921132327 73 158 6.0 13.0 0.00 0.00 0.00 61 1013.7
20210921131300 73 144 4.0 10.0 0.00 0.00 0.00 62 1013.3
20210921130233 73 165 5.0 11.0 0.00 0.00 0.00 62 1013.1
20210921125249 74 131 4.0 11.0 0.00 0.00 0.00 65 1012.9
20210921124311 74 154 4.0 11.0 0.00 0.00 0.00 66 1012.7
20210921123304 75 194 4.0 10.0 0.00 0.00 0.00 68 1012.5
20210921122257 76 128 3.0 7.0 0.00 0.00 0.00 74 1012.3
20210921121316 76 103 0.0 3.0 0.00 0.00 0.00 77 1011.9
20210921120323 77 35 0.0 1.0 0.00 0.00 0.00 76 1011.3
20210921115323 77 34 0.0 4.0 0.00 0.00 0.00 75 1011.0
20210921114307 78 34 1.0 3.0 0.00 0.00 0.00 74 1010.9
20210921113236 78 38 0.0 2.0 0.00 0.00 0.00 73 1010.7
20210921112239 78 42 0.0 0.0 0.00 0.00 0.00 72 1010.5
20210921111235 78 46 0.0 1.0 0.00 0.00 0.00 72 1010.5
20210921110225 79 34 0.0 4.0 0.00 0.00 0.00 72 1010.4
20210921105223 79 44 0.0 5.0 0.00 0.00 0.00 72 1010.2
20210921104157 79 119 0.0 4.0 0.00 0.00 0.00 72 1010.0
20210921103139 79 34 0.0 3.0 0.00 0.00 0.00 72 1009.9
20210921102118 79 89 0.0 3.0 0.00 0.00 0.00 72 1009.7
20210921101054 79 63 0.0 2.0 0.00 0.00 0.00 72 1009.5
20210921100036 80 67 1.0 6.0 0.00 0.00 0.00 72 1009.2
20210921095052 80 26 3.0 6.0 0.00 0.00 0.00 71 1008.9
20210921094114 80 11 3.0 7.0 0.00 0.00 0.00 70 1008.7
20210921093100 80 5 4.0 9.0 0.00 0.00 0.00 69 1008.3
20210921092028 80 13 4.0 9.0 0.00 0.00 0.00 69 1008.2
20210921091020 80 9 4.0 8.0 0.00 0.00 0.00 68 1008.1
20210921085947 80 9 3.0 6.0 0.00 0.00 0.00 68 1008.1
20210921084929 80 21 2.0 5.0 0.00 0.00 0.00 66 1008.0
20210921083923 80 9 2.0 6.0 0.00 0.00 0.00 66 1008.0
20210921082926 81 11 3.0 7.0 0.00 0.00 0.00 65 1008.0
20210921081935 81 350 2.0 7.0 0.00 0.00 0.00 64 1007.9
20210921080956 81 343 3.0 7.0 0.00 0.00 0.00 63 1008.0
20210921075929 82 342 3.0 9.0 0.00 0.00 0.00 62 1007.7
20210921074928 82 335 3.0 11.0 0.00 0.00 0.00 61 1008.0
20210921073927 82 0 3.0 11.0 0.00 0.00 0.00 60 1008.0
20210921072929 82 5 3.0 7.0 0.00 0.00 0.00 60 1008.1
20210921071945 83 329 3.0 7.0 0.00 0.00 0.00 59 1008.0
20210921070946 83 330 3.0 10.0 0.00 0.00 0.00 58 1008.2
20210921065947 83 327 3.0 10.0 0.00 0.00 0.00 58 1008.0
20210921064918 83 350 3.0 9.0 0.00 0.00 0.00 58 1008.1
20210921063913 83 9 3.0 7.0 0.00 0.00 0.00 57 1008.1
20210921062904 83 336 3.0 9.0 0.00 0.00 0.00 57 1008.1
20210921061830 83 333 4.0 9.0 0.00 0.00 0.00 57 1007.9
20210921060831 83 5 4.0 7.0 0.00 0.00 0.00 57 1007.7
20210921055823 83 326 3.0 7.0 0.00 0.00 0.00 57 1007.8
20210921054814 83 0 1.0 5.0 0.00 0.00 0.00 57 1008.2
20210921053741 84 5 2.0 5.0 0.00 0.00 0.00 56 1008.3
20210921052710 84 19 2.0 5.0 0.00 0.00 0.00 55 1008.3
20210921051659 85 27 2.0 8.0 0.00 0.00 0.00 54 1008.3
20210921050641 85 10 4.0 8.0 0.00 0.00 0.00 54 1008.2
20210921045655 85 20 3.0 8.0 0.00 0.00 0.00 54 1007.9
20210921044658 85 5 3.0 7.0 0.00 0.00 0.00 53 1007.9
20210921043634 85 338 3.0 8.0 0.00 0.00 0.00 52 1007.6
20210921042613 85 340 4.0 12.0 0.00 0.00 0.00 52 1007.5
20210921041624 86 17 5.0 12.0 0.00 0.00 0.00 51 1007.1
20210921040633 86 332 5.0 10.0 0.00 0.00 0.00 51 1007.0
20210921035629 86 0 4.0 12.0 0.00 0.00 0.00 50 1007.0
20210921034646 87 5 6.0 12.0 0.00 0.00 0.00 50 1006.9
20210921033644 87 13 4.0 10.0 0.00 0.00 0.00 50 1006.7
20210921032633 87 338 5.0 10.0 0.00 0.00 0.00 49 1006.4
20210921031634 87 344 4.0 8.0 0.00 0.00 0.00 49 1006.3
20210921030610 87 16 4.0 8.0 0.00 0.00 0.00 49 1006.4
20210921025541 87 314 4.0 8.0 0.00 0.00 0.00 49 1006.3
20210921024523 87 331 3.0 9.0 0.00 0.00 0.00 49 1006.3
20210921023458 87 355 3.0 9.0 0.00 0.00 0.00 49 1005.8